Temperature
24 24 23 23 22 21 24 26 27 27 26 27 27 26 25 24 23 20 20 21 21 21 20 20 20 20 20 20 20 20 19 19 19 19 19 19 19 19 19 19 19 19 19 18 18 18 18 18 18
24 24 24 23 21 22 24 26 27 27 26 26 26 25 24 22 21 20 20 21 21 21 21 20 20 20 20 20 20 19 19 19 19 19 19 19 19 19 19 19 19 19 19 19 18 18 18 18 18
25 24 24 21 22 23 24 26 26 27 27 27 26 25 24 22 20 20 21 21 21 21 21 20 20 20 20 20 19 19 19 19 19 19 19 19 19 19 19 19 19 18 18 18 18 18 18 18 18
25 24 23 21 23 25 25 26 27 27 27 26 26 25 24 23 22 22 21 22 22 21 21 20 20 20 20 20 19 19 19 19 19 19 19 19 19 19 19 19 19 18 18 18 18 18 18 18 17
25 24 22 22 24 26 26 27 27 26 26 25 25 24 23 23 23 22 22 22 22 21 21 21 20 20 20 20 20 19 19 19 19 19 19 19 19 19 19 18 18 18 18 18 18 18 18 18 17
25 22 22 23 25 27 27 27 26 26 25 25 24 23 22 22 23 22 22 22 22 22 21 20 20 20 20 20 20 19 19 19 19 19 19 19 19 18 18 19 19 19 19 18 18 18 18 18 17
24 22 23 24 26 27 27 27 26 26 25 25 24 23 21 21 22 22 22 22 22 22 21 21 20 20 20 20 20 20 19 19 19 19 19 19 19 18 18 19 19 19 18 18 18 18 18 18 17
26 22 23 24 26 27 28 27 26 26 26 25 25 23 22 21 22 22 22 22 22 21 21 21 21 20 20 20 20 19 19 19 19 19 19 19 19 18 19 19 19 18 18 18 18 18 18 18 17
27 22 23 25 26 27 28 27 27 27 26 26 25 25 23 22 21 21 21 21 21 21 21 21 21 20 20 20 20 19 19 19 19 19 19 19 19 18 18 18 18 18 19 19 18 18 18 18 18
26 23 25 27 28 27 28 28 27 26 26 25 25 24 23 22 22 21 21 21 21 21 21 21 21 21 20 20 20 20 19 19 19 19 19 19 18 18 18 18 18 18 19 18 18 18 18 18 18
26 26 27 28 29 29 29 28 27 26 24 25 25 24 23 22 22 22 22 22 22 22 21 21 21 21 20 20 20 20 19 19 19 19 19 19 18 18 18 18 18 18 18 18 18 18 18 18 18
27 28 29 30 30 30 29 28 27 26 26 27 27 25 24 23 22 22 22 22 22 21 21 21 21 21 20 20 20 20 19 19 19 19 19 19 18 18 18 18 18 18 18 18 18 18 18 18 18
27 28 30 31 31 30 30 29 28 27 27 26 26 25 24 24 23 23 22 22 22 21 21 21 21 21 20 20 20 20 19 19 19 19 19 19 18 18 18 18 18 18 18 18 18 18 18 18 18
28 28 29 30 30 30 29 28 27 26 26 25 25 24 24 24 23 23 22 22 22 21 21 21 20 20 20 20 20 20 19 19 19 19 19 19 19 18 18 18 18 18 18 18 18 18 18 18 18
29 27 27 28 30 30 29 27 26 26 25 24 24 24 24 24 24 23 23 22 22 21 21 21 21 20 20 20 20 19 19 19 19 19 19 19 19 18 18 18 18 18 18 18 18 18 18 18 18
26 26 26 27 29 29 28 26 26 26 25 24 24 24 24 24 24 24 23 23 22 22 21 21 20 20 20 20 19 19 19 19 19 19 19 19 19 19 18 18 18 18 18 18 18 18 18 18 18
24 25 26 27 28 29 28 26 26 26 25 24 24 24 24 24 24 24 23 23 22 22 21 21 21 20 20 20 19 19 19 19 19 19 19 19 19 19 18 18 18 18 18 18 18 18 18 18 18
24 25 26 26 28 28 27 26 26 26 25 24 24 24 23 23 24 24 23 23 22 22 22 21 21 21 20 20 20 19 19 19 19 19 19 19 19 19 19 18 18 18 18 18 18 18 18 18 18
25 25 25 27 29 28 27 27 26 26 26 25 24 23 23 24 24 24 23 23 22 22 21 21 21 20 20 20 20 19 19 19 19 19 19 19 19 18 18 18 18 18 18 18 18 18 18 18 18
26 25 25 27 28 28 27 27 26 25 25 25 24 24 24 23 23 23 23 23 22 22 22 21 21 21 20 20 20 20 19 19 19 19 19 18 18 18 18 18 18 18 18 18 18 18 18 18 18
26 25 26 27 28 28 27 26 25 25 25 25 25 24 24 24 23 23 23 23 22 22 22 21 21 21 20 20 19 19 19 19 18 18 18 18 18 18 18 18 18 18 18 18 18 18 18 18 18
25 27 28 28 26 24 26 24 24 24 24 24 24 24 24 24 23 23 23 23 22 22 22 21 21 20 20 20 19 19 19 19 19 19 19 19 18 18 18 18 18 18 18 18 18 18 18 18 18
26 27 27 27 26 24 24 23 22 23 23 23 23 24 24 24 23 23 23 23 23 22 22 21 21 20 20 19 19 19 19 19 19 19 19 18 18 18 18 18 18 18 18 18 18 18 18 18 18
28 27 25 22 21 22 23 23 22 22 22 23 23 24 23 23 24 24 23 23 22 22 21 21 20 20 20 19 19 19 19 19 18 18 18 18 18 18 18 18 18 18 18 18 18 18 18 18 18
27 23 21 22 20 21 22 23 21 23 23 23 23 23 23 23 23 23 23 23 22 21 21 21 20 20 19 19 19 19 18 18 18 18 18 18 18 18 18 18 18 18 18 18 18 18 18 18 18
24 22 21 22 21 21 22 22 22 23 23 24 24 24 23 23 23 23 23 23 22 22 21 21 20 20 19 19 19 18 18 18 18 18 18 18 18 18 18 18 18 18 18 18 18 18 18 18 18
25 22 21 20 21 21 21 22 22 23 23 23 23 23 22 23 23 22 22 22 22 21 21 21 20 20 19 19 19 18 18 18 18 18 18 18 18 18 18 18 18 18 18 18 17 17 17 17 17
25 23 20 20 21 21 22 22 21 22 22 22 21 22 22 22 22 22 22 22 22 21 21 20 20 20 19 19 19 18 18 18 18 18 18 18 18 18 18 18 17 17 17 17 17 17 17 17 17
25 24 21 19 19 20 21 21 22 21 21 21 21 22 22 22 22 22 22 22 21 21 20 20 20 19 19 19 19 18 18 18 18 18 18 18 18 17 17 17 17 17 17 17 17 17 17 17 17
25 23 21 21 20 19 19 20 22 21 21 21 21 21 22 22 22 22 22 21 21 21 20 20 19 19 19 19 18 18 18 18 18 18 18 18 17 17 17 17 17 17 17 16 16 16 17 17 17
Wind_Speed
4 3 1 1 4 5 3 3 6 10 7 8 11 10 9 6 5 8 7 17 20 17 18 21 21 20 20 19 18 18 18 18 18 18 18 18 18 18 18 18 17 17 17 17 17 17 17 17 17
2 2 1 3 5 5 3 5 10 11 11 12 12 11 10 8 10 11 9 18 20 17 18 19 21 21 20 19 18 18 18 18 17 17 17 17 17 17 17 17 16 16 16 16 16 16 16 16 16
2 1 3 4 3 3 2 6 9 11 11 10 7 7 6 9 11 7 12 20 17 15 17 20 22 21 20 19 18 18 17 17 17 16 16 16 16 16 16 16 16 15 15 15 15 15 15 15 15
1 3 4 4 1 3 4 4 8 12 11 9 9 7 5 7 8 15 21 20 18 13 16 20 22 21 20 19 18 17 17 17 16 16 16 16 16 16 15 15 15 15 14 14 14 14 13 13 13
3 4 4 1 2 3 6 6 7 10 6 8 11 9 6 6 21 23 21 20 18 13 15 19 21 21 20 19 18 17 17 16 16 16 16 15 15 15 15 15 15 14 14 13 12 12 12 11 11
3 4 3 1 1 2 5 7 8 13 14 11 11 9 5 15 22 21 20 18 17 16 14 18 21 20 19 19 18 17 17 16 16 15 15 15 15 14 14 14 14 13 13 12 11 11 10 9 9
4 3 1 3 1 3 5 6 9 12 12 8 9 8 7 14 19 20 18 17 15 15 13 14 17 18 19 18 18 17 17 16 16 15 15 15 14 14 14 14 13 13 12 11 10 9 8 8 7
4 4 1 2 2 3 5 5 9 12 9 10 8 9 12 16 19 19 17 15 14 12 11 10 13 15 15 16 18 17 17 16 16 15 15 15 14 14 14 13 13 12 11 10 9 8 7 6 6
3 3 2 4 4 3 5 9 6 7 12 6 4 8 18 22 22 20 17 14 13 13 10 9 10 12 13 14 16 17 16 16 15 15 15 13 12 12 12 12 12 12 11 9 8 7 5 4 4
4 3 6 6 5 5 8 11 8 6 10 7 9 13 19 21 22 22 20 18 16 15 13 11 11 11 13 13 14 13 13 14 13 13 13 12 11 11 11 12 12 11 10 8 7 5 4 2 1
5 6 5 4 5 6 6 6 6 11 8 13 19 20 20 19 19 20 20 19 18 17 15 13 12 12 11 8 11 9 10 11 11 12 13 12 10 9 9 9 9 9 8 6 5 4 3 3 2
4 7 5 3 3 4 6 6 6 7 10 16 22 22 19 19 19 19 19 18 17 17 16 14 13 12 10 10 9 9 8 8 9 12 14 11 7 7 7 7 7 7 6 5 5 4 4 4 4
4 6 5 3 2 4 5 6 6 5 11 14 18 19 18 17 15 14 15 16 16 16 16 16 14 13 11 10 8 9 8 9 11 12 13 13 8 6 6 6 7 7 7 6 5 4 4 3 3
6 7 7 3 3 3 6 4 6 7 16 16 15 15 16 16 15 12 14 14 15 16 16 15 15 13 11 10 8 8 9 10 11 11 13 15 12 9 7 6 6 7 8 8 7 5 3 3 3
5 7 8 5 3 2 6 1 6 13 18 18 16 14 13 13 13 13 15 15 15 15 15 15 15 13 12 11 10 9 10 11 9 10 14 15 14 12 9 6 6 7 10 9 7 5 3 2 2
6 5 4 8 3 4 7 5 7 15 20 17 16 15 14 13 14 14 14 13 13 14 14 15 15 13 12 10 8 7 9 10 9 11 12 14 14 14 10 6 5 9 9 7 4 3 2 2 2
5 3 6 9 5 4 6 6 9 15 19 18 16 15 15 13 12 12 14 14 13 14 14 13 11 13 11 9 7 7 7 8 9 10 10 12 13 13 10 6 6 9 6 4 5 3 3 3 3
5 5 6 8 6 3 5 6 11 15 18 19 17 14 14 14 14 13 14 14 13 13 13 12 11 12 10 7 5 4 4 5 7 8 10 12 11 12 10 7 7 7 4 4 4 3 3 3 3
6 8 10 11 8 2 6 7 10 13 15 15 14 14 14 14 12 12 13 13 12 12 13 13 12 11 9 6 6 5 5 5 5 5 9 11 11 11 9 6 5 5 5 6 6 4 3 2 2
8 10 10 10 6 1 5 5 5 10 15 17 17 16 14 11 10 12 11 12 13 14 13 12 12 12 10 8 6 4 4 4 5 4 7 11 12 11 10 7 6 6 5 5 5 4 3 3 3
10 8 8 8 6 5 4 3 1 2 5 9 11 12 13 16 16 15 15 14 13 13 14 13 12 11 10 8 5 4 3 2 3 4 5 8 12 12 10 9 7 7 7 6 6 6 6 4 3
9 9 7 6 1 3 2 1 6 4 3 8 11 11 12 11 11 13 14 14 14 13 12 11 11 11 9 9 8 8 6 6 6 6 6 7 10 10 11 9 8 7 6 7 7 6 5 5 3
9 9 5 3 1 2 3 2 7 3 3 7 11 12 11 11 11 12 13 13 12 11 11 10 10 10 9 9 10 9 7 6 4 4 6 7 7 8 10 10 8 7 7 7 7 6 6 5 5
8 2 5 6 6 1 4 3 6 5 7 9 10 11 11 10 9 8 8 9 9 9 10 10 10 8 8 9 9 9 9 7 6 6 7 6 5 6 8 9 8 8 7 7 7 7 7 6 6
3 5 4 5 4 5 4 3 7 7 6 9 10 10 9 9 9 8 9 9 9 10 10 10 10 8 8 8 8 9 9 9 9 7 7 7 6 6 8 8 7 7 7 7 7 7 7 7 6
6 10 8 6 5 5 4 3 5 5 2 3 6 8 8 8 8 9 10 10 10 10 10 10 10 8 8 8 8 7 7 7 6 7 6 7 6 7 7 7 8 8 7 8 6 6 6 6 6
7 6 10 8 3 1 4 4 5 3 3 4 5 7 8 8 8 8 8 8 8 9 9 9 9 7 7 7 6 5 6 6 6 6 6 5 5 6 7 7 7 7 8 7 7 5 6 6 6
10 9 7 6 5 3 4 3 4 3 3 3 4 5 5 7 8 8 8 8 7 7 7 7 7 7 6 6 6 5 4 5 5 5 5 5 5 5 6 7 6 6 7 7 6 5 5 5 5
5 5 6 6 7 7 3 6 6 7 6 7 7 7 9 10 10 8 7 6 6 6 6 7 6 6 5 6 5 4 4 4 3 3 4 4 4 4 5 5 6 6 6 6 6 6 5 5 5
8 9 9 7 5 6 5 6 3 5 6 8 8 7 8 10 9 8 7 6 6 6 6 7 6 6 6 6 5 4 3 3 3 2 3 3 3 2 3 4 5 5 5 5 6 6 5 6 5
Wind_Direction
219 226 183 42 48 51 82 103 98 82 58 64 80 86 87 68 111 132 132 137 135 139 142 140 136 133 129 125 122 119 116 113 113 112 112 112 112 112 111 110 109 108 108 107 107 107 108 109 110
210 192 61 46 66 61 47 82 84 94 117 102 82 82 78 71 86 107 121 136 135 138 140 141 138 135 132 129 127 124 122 120 118 118 118 117 117 116 115 113 112 112 111 110 111 110 111 110 110
224 126 76 59 76 126 87 92 100 101 104 96 91 71 78 109 113 114 135 136 133 135 139 143 140 137 135 133 131 129 127 125 124 123 122 122 121 120 120 118 117 116 115 114 114 113 112 111 111
95 61 58 73 149 181 155 132 113 104 82 76 93 75 74 110 116 131 137 136 132 133 138 143 141 139 138 137 136 133 132 130 129 127 125 125 124 124 123 122 120 119 119 118 117 117 116 113 111
79 74 58 63 191 172 148 142 118 105 94 95 95 90 66 81 120 132 138 137 135 135 138 143 142 142 141 141 139 137 136 134 132 131 129 128 128 127 126 126 125 123 123 122 122 121 118 114 109
54 67 62 298 167 135 140 138 108 109 114 108 104 102 89 128 131 139 139 139 139 140 140 144 145 145 145 145 143 141 140 139 137 135 134 133 132 132 131 131 130 129 128 128 126 125 121 115 108
123 103 192 234 193 126 155 135 123 132 133 136 127 105 120 144 142 141 139 137 139 141 141 144 148 149 149 148 148 147 145 144 143 141 139 138 137 137 137 137 136 135 134 134 132 130 126 121 114
149 104 308 232 129 131 151 122 132 132 128 131 132 132 153 156 144 139 136 135 138 142 145 145 148 149 150 152 153 152 150 150 149 148 147 145 145 144 143 142 143 142 142 142 142 139 136 129 121
120 85 221 203 159 172 149 117 123 117 129 144 133 140 151 146 141 138 136 138 145 150 153 152 150 151 152 154 159 157 157 157 156 156 155 149 146 148 149 152 151 150 151 153 154 152 152 142 126
123 166 217 204 190 173 156 137 143 121 120 112 106 120 140 142 146 148 151 155 158 161 165 165 161 161 161 164 159 161 161 161 161 162 157 154 156 160 162 163 161 160 161 165 172 174 182 178 151
185 210 233 218 200 170 151 146 145 134 142 153 147 148 151 149 152 155 161 163 166 166 168 170 170 169 170 162 159 166 163 164 169 170 167 166 167 172 167 166 168 169 169 171 184 196 218 235 217
260 266 250 223 188 162 155 149 137 163 173 164 153 154 157 158 162 163 165 168 167 169 173 172 173 173 174 164 168 171 168 174 179 182 181 173 167 168 169 171 174 175 176 179 186 206 233 250 239
277 287 287 256 220 171 140 149 141 148 138 144 149 153 160 161 162 164 163 166 167 171 174 174 174 176 173 169 178 176 177 182 185 185 185 177 169 172 176 176 180 187 187 188 192 208 231 244 223
278 299 301 281 258 186 142 145 125 149 140 146 155 163 166 165 162 159 161 166 170 173 174 173 175 176 172 175 179 177 180 183 183 185 186 183 178 175 175 177 184 194 197 197 197 204 215 230 199
320 327 322 297 250 203 119 102 167 156 148 155 168 175 173 170 167 168 169 170 170 171 170 173 176 175 174 175 178 177 180 180 181 186 186 184 181 177 174 177 186 196 197 197 200 208 212 208 185
351 357 317 288 251 230 137 203 191 158 155 163 175 179 179 176 177 175 174 173 168 165 169 174 176 173 174 172 170 166 173 176 181 184 183 184 182 178 172 175 186 190 187 185 183 183 179 198 188
1 315 281 292 260 213 159 189 184 167 162 168 176 180 181 179 182 181 178 176 171 167 169 172 168 170 172 169 165 160 166 170 177 180 179 182 182 180 174 179 185 184 179 180 193 178 174 189 202
253 282 294 285 277 205 186 192 176 177 170 174 177 177 180 184 189 182 178 178 173 170 170 171 168 171 166 160 153 151 161 173 176 179 181 183 185 183 177 181 182 176 168 176 179 170 174 184 193
255 283 288 285 284 223 187 179 179 179 173 174 179 181 185 191 189 176 172 173 171 171 172 174 172 173 167 167 169 170 179 182 178 185 185 186 190 187 182 182 177 172 177 185 178 165 172 193 157
260 274 283 295 302 179 177 181 176 174 177 178 180 185 185 181 181 175 169 175 177 177 178 177 177 176 177 179 177 172 167 181 185 188 192 193 196 192 192 182 183 181 179 184 184 168 167 195 163
264 251 260 272 312 11 85 10 326 235 171 170 176 178 177 181 182 179 176 181 183 182 180 180 180 180 179 171 160 152 143 148 172 190 198 200 199 197 194 186 185 187 184 192 193 179 170 186 202
258 252 253 269 329 305 79 239 285 257 178 170 175 178 177 179 184 182 179 181 185 184 178 176 178 178 177 171 174 176 185 194 200 195 197 202 202 199 196 193 191 191 191 193 199 189 177 169 193
232 256 260 263 139 3 7 124 279 293 194 191 182 181 177 177 183 183 180 180 181 176 172 172 173 179 181 182 183 185 197 202 197 192 194 201 204 201 197 196 193 194 194 198 198 186 184 182 184
225 290 10 43 69 351 260 162 268 248 210 193 188 181 173 175 180 174 172 166 167 168 169 171 172 182 184 187 189 192 196 195 194 200 202 204 209 210 204 200 198 198 197 201 201 194 190 193 190
174 103 27 354 6 255 268 173 248 257 216 189 179 175 172 171 167 161 163 163 162 166 170 173 175 184 187 188 195 198 200 197 200 203 203 202 206 211 213 209 202 202 204 202 196 196 199 196 194
187 145 160 189 220 275 323 223 264 283 242 164 162 161 158 164 162 165 164 160 162 168 170 172 177 183 186 191 199 201 200 199 201 201 201 203 205 210 208 207 203 202 204 207 195 198 204 201 203
169 173 167 143 179 241 288 291 326 16 60 100 133 143 158 166 166 163 157 156 158 163 167 170 175 181 186 192 193 194 195 197 203 203 203 206 206 210 204 203 207 206 206 205 194 201 206 198 202
169 164 111 126 164 236 279 261 222 222 182 138 139 155 163 162 157 157 156 158 160 160 159 160 164 174 178 176 181 187 194 200 203 197 198 201 207 208 199 205 203 207 206 200 191 197 198 191 199
167 149 132 140 156 163 228 266 219 200 184 168 173 170 167 159 153 156 154 154 148 145 150 155 161 163 167 170 174 178 189 193 184 186 194 198 203 202 201 200 198 201 202 197 194 198 191 191 196
173 176 153 161 205 164 171 258 262 169 168 165 161 153 149 147 144 143 141 133 134 140 147 153 161 170 172 170 164 171 179 172 167 184 197 189 190 199 202 194 190 194 193 190 189 196 191 186 191
Height
1498 1497 1496 1497 1499 1508 1508 1498 1490 1490 1492 1492 1492 1493 1497 1502 1508 1519 1517 1520 1524 1526 1530 1533 1534 1536 1537 1538 1540 1541 1542 1542 1543 1544 1545 1546 1547 1548 1549 1549 1550 1551 1552 1552 1553 1554 1554 1555 1556
1499 1498 1498 1498 1508 1522 1512 1497 1495 1493 1494 1494 1495 1497 1500 1506 1508 1512 1516 1522 1525 1527 1530 1533 1535 1537 1538 1540 1541 1542 1543 1544 1545 1546 1547 1548 1549 1550 1551 1551 1552 1553 1554 1554 1555 1556 1557 1557 1558
1499 1498 1500 1503 1512 1519 1512 1499 1496 1495 1495 1493 1497 1500 1503 1508 1511 1513 1517 1522 1526 1529 1531 1534 1536 1538 1539 1541 1542 1544 1545 1546 1547 1548 1549 1549 1550 1551 1552 1553 1554 1555 1556 1556 1557 1558 1559 1560 1560
1500 1501 1502 1509 1513 1505 1502 1497 1495 1496 1497 1497 1498 1504 1508 1512 1512 1515 1519 1524 1526 1530 1533 1535 1537 1539 1540 1542 1543 1545 1546 1547 1548 1549 1550 1551 1552 1553 1554 1555 1556 1557 1557 1558 1559 1560 1561 1562 1563
1499 1501 1508 1514 1508 1498 1495 1494 1494 1496 1498 1500 1500 1507 1512 1514 1514 1518 1521 1525 1527 1530 1533 1536 1538 1540 1541 1543 1544 1546 1547 1548 1549 1550 1551 1552 1553 1554 1555 1556 1557 1558 1559 1560 1561 1562 1563 1564 1565
1500 1502 1516 1519 1505 1496 1494 1494 1496 1497 1501 1503 1504 1509 1516 1516 1517 1520 1523 1526 1529 1531 1533 1536 1539 1540 1542 1544 1545 1547 1548 1549 1550 1551 1553 1554 1555 1556 1557 1558 1559 1560 1561 1562 1563 1564 1565 1566 1567
1501 1506 1514 1511 1504 1499 1495 1494 1495 1498 1500 1503 1504 1510 1517 1519 1519 1522 1525 1527 1530 1532 1534 1537 1539 1541 1543 1544 1546 1547 1549 1550 1551 1552 1554 1555 1556 1557 1558 1559 1560 1561 1563 1564 1565 1566 1567 1568 1569
1499 1505 1511 1509 1504 1500 1494 1493 1495 1496 1500 1504 1504 1507 1514 1518 1520 1523 1526 1529 1531 1533 1535 1537 1539 1541 1543 1545 1547 1548 1550 1551 1552 1553 1555 1556 1557 1558 1559 1560 1562 1563 1564 1565 1566 1568 1569 1570 1571
1499 1508 1513 1505 1501 1498 1492 1493 1497 1497 1498 1502 1503 1505 1510 1516 1520 1523 1526 1529 1531 1533 1536 1537 1539 1541 1543 1545 1547 1549 1550 1552 1553 1554 1555 1557 1558 1559 1560 1562 1563 1564 1565 1566 1568 1569 1570 1571 1572
1497 1508 1502 1492 1490 1491 1490 1491 1495 1499 1499 1502 1504 1508 1513 1516 1519 1521 1523 1527 1529 1532 1535 1537 1539 1541 1543 1545 1547 1548 1550 1552 1553 1554 1556 1557 1559 1560 1561 1563 1564 1565 1566 1568 1569 1570 1571 1573 1573
1493 1496 1489 1486 1486 1487 1489 1491 1493 1496 1500 1499 1501 1507 1512 1515 1518 1520 1522 1525 1528 1531 1534 1537 1539 1541 1543 1545 1546 1548 1550 1551 1553 1555 1556 1558 1559 1560 1562 1563 1564 1566 1567 1569 1570 1571 1572 1573 1574
1491 1486 1484 1484 1484 1485 1487 1490 1492 1493 1495 1496 1498 1503 1509 1513 1516 1518 1521 1524 1528 1530 1533 1536 1538 1540 1542 1544 1546 1548 1550 1551 1553 1554 1556 1557 1559 1561 1562 1564 1565 1566 1568 1569 1570 1572 1573 1574 1575
1488 1485 1482 1481 1481 1483 1485 1488 1490 1493 1495 1499 1502 1505 1508 1512 1515 1518 1520 1523 1526 1529 1532 1534 1537 1539 1541 1543 1545 1547 1549 1551 1553 1554 1556 1557 1559 1560 1562 1564 1565 1566 1568 1569 1570 1571 1573 1574 1575
1486 1484 1481 1480 1480 1482 1484 1487 1490 1493 1494 1499 1503 1506 1508 1511 1514 1517 1520 1522 1524 1527 1530 1533 1535 1538 1540 1542 1544 1546 1548 1550 1552 1554 1555 1557 1558 1560 1562 1563 1565 1566 1568 1569 1571 1572 1573 1574 1574
1485 1485 1482 1479 1479 1480 1483 1491 1489 1491 1495 1499 1502 1505 1508 1511 1513 1515 1518 1520 1523 1526 1528 1531 1534 1537 1539 1541 1543 1545 1547 1549 1551 1553 1554 1556 1558 1559 1561 1563 1564 1566 1567 1569 1570 1571 1572 1573 1574
1487 1491 1495 1482 1478 1479 1487 1499 1489 1491 1493 1497 1500 1504 1507 1509 1511 1514 1517 1520 1522 1525 1527 1530 1533 1535 1537 1540 1542 1544 1546 1547 1549 1551 1553 1555 1557 1558 1560 1562 1563 1565 1566 1568 1569 1570 1571 1572 1573
1498 1503 1499 1488 1476 1477 1484 1493 1488 1489 1491 1495 1498 1501 1504 1507 1510 1512 1515 1518 1521 1523 1525 1528 1531 1533 1536 1538 1540 1542 1544 1546 1548 1549 1551 1553 1555 1557 1559 1561 1562 1564 1565 1567 1568 1569 1570 1571 1572
1507 1503 1498 1492 1477 1477 1483 1486 1485 1487 1489 1491 1495 1498 1502 1504 1506 1509 1513 1516 1519 1521 1524 1526 1529 1531 1534 1536 1538 1540 1542 1544 1546 1547 1549 1551 1553 1555 1557 1559 1561 1562 1564 1565 1566 1568 1569 1570 1571
1496 1499 1499 1488 1475 1478 1482 1484 1484 1485 1488 1491 1493 1496 1498 1501 1505 1508 1511 1514 1517 1519 1521 1524 1526 1529 1531 1533 1535 1537 1539 1541 1543 1545 1547 1549 1551 1553 1555 1556 1558 1560 1561 1563 1564 1566 1567 1568 1569
1493 1498 1496 1486 1474 1476 1481 1483 1481 1482 1484 1486 1489 1492 1495 1499 1503 1505 1508 1511 1513 1516 1518 1521 1523 1526 1528 1530 1532 1535 1536 1538 1541 1542 1544 1546 1548 1550 1552 1554 1555 1557 1559 1561 1562 1563 1564 1566 1567
1492 1495 1492 1489 1479 1476 1481 1490 1487 1483 1482 1485 1487 1490 1492 1495 1498 1501 1504 1507 1510 1513 1515 1518 1521 1523 1525 1528 1530 1532 1534 1535 1537 1539 1540 1543 1545 1547 1549 1551 1552 1554 1556 1558 1559 1561 1562 1563 1565
1494 1481 1481 1482 1490 1499 1491 1513 1495 1487 1484 1484 1485 1488 1490 1493 1496 1498 1500 1503 1506 1509 1513 1516 1518 1520 1522 1524 1526 1527 1529 1530 1532 1534 1537 1539 1542 1543 1545 1547 1549 1551 1553 1554 1556 1558 1559 1560 1562
1482 1474 1477 1480 1489 1500 1499 1510 1504 1489 1489 1485 1483 1485 1488 1490 1493 1496 1498 1500 1504 1508 1510 1513 1515 1517 1519 1521 1522 1524 1525 1527 1529 1531 1534 1536 1538 1540 1541 1543 1545 1547 1549 1551 1553 1554 1556 1557 1558
1471 1476 1482 1491 1502 1518 1505 1509 1509 1494 1486 1482 1481 1482 1485 1488 1491 1493 1496 1499 1503 1506 1509 1511 1513 1514 1516 1518 1519 1520 1521 1523 1525 1527 1529 1532 1534 1536 1538 1540 1541 1543 1545 1547 1549 1550 1552 1553 1555
1472 1495 1517 1518 1528 1524 1504 1506 1505 1483 1477 1476 1478 1481 1483 1487 1490 1492 1495 1497 1501 1504 1507 1509 1510 1512 1513 1514 1515 1517 1518 1520 1521 1523 1525 1527 1529 1531 1533 1535 1537 1538 1540 1543 1545 1547 1548 1549 1551
1476 1490 1518 1529 1531 1523 1504 1507 1495 1478 1475 1475 1477 1480 1484 1487 1488 1491 1494 1496 1499 1502 1504 1506 1508 1509 1510 1511 1512 1514 1515 1516 1518 1520 1522 1523 1525 1527 1529 1531 1533 1534 1536 1538 1540 1542 1544 1546 1547
1474 1485 1488 1508 1514 1521 1516 1502 1489 1478 1477 1476 1479 1481 1483 1486 1489 1491 1494 1496 1498 1500 1502 1504 1505 1507 1508 1509 1510 1511 1512 1513 1514 1516 1518 1520 1521 1523 1525 1526 1528 1530 1532 1534 1536 1538 1539 1541 1543
1461 1471 1493 1508 1523 1528 1516 1507 1502 1488 1483 1479 1480 1482 1484 1487 1490 1492 1494 1496 1498 1500 1501 1503 1504 1505 1506 1507 1508 1509 1510 1511 1512 1513 1515 1516 1517 1519 1520 1522 1524 1525 1527 1529 1531 1533 1535 1537 1538
1465 1473 1484 1501 1508 1522 1526 1513 1483 1481 1479 1479 1480 1482 1484 1487 1489 1491 1494 1497 1498 1500 1501 1502 1503 1505 1505 1506 1507 1508 1508 1509 1510 1511 1512 1513 1514 1515 1517 1518 1519 1521 1522 1524 1526 1528 1530 1532 1534
1455 1466 1480 1499 1505 1509 1515 1508 1475 1476 1477 1477 1479 1482 1484 1486 1488 1491 1494 1496 1498 1499 1501 1501 1502 1504 1504 1505 1506 1507 1508 1508 1508 1509 1509 1510 1511 1512 1514 1515 1515 1517 1518 1520 1522 1524 1526 1528 1530